Location: Home AU
(51.1382°N, 13.5726°E)
Time: 08:04:28
(UTC+01:00)

ISS - Pass Details

Date: 04 January 2018
Orbit: 401 x 406 km, 51.6° (Epoch: 17 January)

Event Time Altitude Azimuth Distance (km) Brightness Sun altitude
Exits shadow 05:23:22 33° 91° (E) 708 -2.1 -24.8°
Drops below altitude 10° 05:25:22 10° 79° (E) 1,469 0.0 -24.5°
Sets 05:27:28 0° 77° (ENE) 2,332 1.2 -24.1°
